Domov               UVHVVR             MKGP            O straneh              
ZDRAVSTVENO VARSTVO RASTLIN
  MREŽA AGROMET. POSTAJ
 ► PROGNOSTIČNA OBVESTILA
AGROMETEOROLOŠKI PODATKI -
ARSO
OBVLADOVANJE TVEGANJ ZARADI
NEUGODNIH VREMENSKIH RAZMER
  ► NARAVNE NESREČE
  ► SUŠA/MOČA
  ► NAMAKANJE
  ► ŽLED (gozdarstvo)
KARTOGRAFSKI PRIKAZI
SPLETNE POVEZAVE
PROJEKTI IN PUBLIKACIJE

AGROMETEOROLOŠKA MREŽA: VREMENSKE POSTAJE IN FENOLOŠKA OPAZOVANJA

Pregled podatkov za lokacijo Dutovlje, meteorološka postaja 38560

Pregled senzorjev na lokaciji

ID Ime Zadnja
vrednost
Datum
zadnje
spremembe
Tip
senzorja
2016 Padavine (mm) 0 mm 14.12.2017 07:00 Rain-O-Matic
2017 Omočenost lista (U) 0 U 16.11.2017 05:00 A730WET
2018 Temperatura 2 m (°C) 5,32 °C 14.12.2017 07:00 50YA
2019 Relativna vlaga 2 m (% RH) 82,93 % RH 14.12.2017 07:00 50YA

Pregled podatkov zadnjih 24 ur

Zap.
št.
Datum in čas Dutovlje
Omočenost
lista
Padavine Relativna
vlaga
2
m
Temperatura
2
m
0 14.12.2017 07:00 0 82,93 5,32
1 14.12.2017 06:30 0 84,05 5,18
2 14.12.2017 06:00 0 85,76 5,01
3 14.12.2017 05:30 0 87,69 4,86
4 14.12.2017 05:00 0 87,28 5,01
5 14.12.2017 04:30 0 86,76 5,1
6 14.12.2017 04:00 0 87,91 5,05
7 14.12.2017 03:30 0 89,94 5,03
8 14.12.2017 03:00 0 89,84 5,08
9 14.12.2017 02:30 0 89,4 5,13
10 14.12.2017 02:00 0 88,21 5,18
11 14.12.2017 01:30 0 88,16 5,1
12 14.12.2017 01:00 0 88,42 4,96
13 14.12.2017 00:30 0 88,28 4,79
14 14.12.2017 00:00 0 88,72 4,74
15 13.12.2017 23:30 0 88,96 4,74
16 13.12.2017 23:00 0 88,01 4,84
17 13.12.2017 22:30 0 86,59 4,96
18 13.12.2017 22:00 0 88,86 4,37
19 13.12.2017 21:30 0 89,47 2,71
20 13.12.2017 21:00 0 88,4 2,52
21 13.12.2017 20:30 0 87,57 2,39
22 13.12.2017 20:00 0 87,03 2,3
23 13.12.2017 19:30 0 86,67 2,05
24 13.12.2017 19:00 0 86,13 2,1
25 13.12.2017 18:30 0 86,11 2,03
26 13.12.2017 18:00 0 85,86 1,95
27 13.12.2017 17:30 0,2 86,72 1,76
28 13.12.2017 17:00 0 87,72 1,61
29 13.12.2017 16:30 0,4 86,08 2,12
30 13.12.2017 16:00 0 85,52 2,27
31 13.12.2017 15:30 0,2 85,96 2,47
32 13.12.2017 15:00 0 88,52 2,64
33 13.12.2017 14:30 0,2 87,16 2,61
34 13.12.2017 14:00 0,4 87,72 2,47
35 13.12.2017 13:30 0,2 90,06 2,54
36 13.12.2017 13:00 0,6 89,33 2,69
37 13.12.2017 12:30 0,4 89,99 2,76
38 13.12.2017 12:00 0,2 90,09 2,39
39 13.12.2017 11:30 1,2 90,55 2,1
40 13.12.2017 11:00 1,6 85,37 2,39
41 13.12.2017 10:30 0,2 83,96 2,54
42 13.12.2017 10:00 1 81,83 2,71
43 13.12.2017 09:30 1,2 79,88 3,17
44 13.12.2017 09:00 0 79,41 3,64
45 13.12.2017 08:30 0,4 82,76 3,32
46 13.12.2017 08:00 1,2 81,88 4,22
47 13.12.2017 07:30 0 78,73 5,3
© 2011 Ministrstvo za kmetijstvo, gozdarstvo in prehrano. Vse pravice pridržane.